Tracking 20093 objects as of 16-Dec-2019
HD Live streaming from Space Station
objects crossing your sky now

MOLNIYA 1-S

Track MOLNIYA 1-S now!
MOLNIYA 1-S is classified as:


NORAD ID: 7392
Int'l Code: 1974-060A
Perigee: 35,773.4 km
Apogee: 35,834.3 km
Inclination: 7.3 °
Period: 1,436.6 minutes
Semi major axis: 42174 km
RCS: 1.5848 m2 (large)
Launch date: July 29, 1974
Source: Commonwealth of Independent States (former USSR) (CIS)
Launch site: TYURATAM MISSILE AND SPACE COMPLEX (TTMTR)
aabbcc
Your satellite tracking list
Your tracking list is empty




NASA's NSSDC Master Catalog

Two Line Element Set (TLE):
1  7392U 74060A   19349.87462318 -.00000306 +00000-0 +00000-0 0  9993
2  7392 007.3063 295.9999 0007220 185.5197 020.7805 01.00235754110350
Source of the keplerian elements: AFSPC